Voltar ao catálogo

SL-12 R/B

AUX MOTOR

AtivoHEO
NORAD 16446·ROCKET BODY·🇷🇺 Russia

Lançado Dec 24, 1985 de Baikonur Cosmodrome

Loading…

Próximas Passagens (próximas 24 horas)

TLE

AtualizadoSource: Space-Track

Época: Sep 13, 2026, 13:22 UTC

1 16446U 85118L   26256.55726855  .00001215  00000-0  60724-3 0  9999
2 16446  64.7879 287.9674 5706324   6.1162 358.7023  4.42076272641788

Acompanhe SL-12 R/B em tempo real com AllMySat

Download on the App Store